Location: Bishop's University Astronomical Observatory
(45.3661°N, 71.8475°W)
Time: 03:05:59
(UTC-04:00)

CZ-4C R/B - Visible Passes

Search period start: 30 April 2017 00:00
Search period end: 10 May 2017 00:00
Orbit: 719 x 1283 km, 63.4° (Epoch: 28 April)

Date Brightness Start Highest point End Pass type
(mag) Time Alt. Az. Time Alt. Az. Time Alt. Az.
30 Apr 4.6 00:24:53 10° WNW 00:29:29 18° WSW 00:29:38 18° WSW visible
30 Apr 3.2 21:19:40 10° NNW 21:26:30 56° NE 21:31:55 20° ESE visible
30 Apr 3.6 23:08:24 10° NW 23:15:06 42° WSW 23:17:07 35° SSW visible
01 May 2.9 21:53:08 10° NW 22:00:15 87° SW 22:04:38 29° SSE visible
01 May 4.4 23:42:56 10° WNW 23:48:14 22° WSW 23:49:49 20° SW visible
02 May 3.4 20:38:17 10° NNW 20:44:59 49° NE 20:52:11 11° ESE visible
02 May 3.4 22:26:52 10° NW 22:33:44 49° WSW 22:37:23 29° S visible
03 May 2.9 21:11:43 10° NW 21:18:49 82° NE 21:25:00 18° SE visible
03 May 4.3 23:01:09 10° WNW 23:06:57 26° WSW 23:10:12 20° SW visible
04 May 3.3 21:45:22 10° NW 21:52:22 57° WSW 21:57:52 20° SSE visible
04 May 5.0 23:37:24 10° W 23:39:50 12° WSW 23:42:19 10° WSW visible
05 May 3.0 20:30:19 10° NW 20:37:20 72° NE 20:45:11 10° SE visible
05 May 4.2 22:19:27 10° NW 22:25:38 31° WSW 22:30:48 15° SSW visible
06 May 3.2 21:03:53 10° NW 21:10:58 67° WSW 21:18:34 11° SSE visible
06 May 5.0 22:54:47 10° WNW 22:58:37 15° WSW 23:02:35 10° SW visible
07 May 4.1 21:37:49 10° NW 21:44:18 36° WSW 21:51:19 10° S visible
08 May 3.1 20:22:26 10° NW 20:29:33 77° SW 20:37:26 10° SSE visible
08 May 4.9 22:12:40 10° WNW 22:17:22 18° WSW 22:22:19 10° SSW visible
09 May 3.9 20:56:15 10° NW 21:02:58 43° WSW 21:10:17 10° S visible
